TimeMDT,TemperatureF,Dew PointF,Humidity,Sea Level PressureIn,VisibilityMPH,Wind Direction,Wind SpeedMPH,Gust SpeedMPH,PrecipitationIn,Events,Conditions,WindDirDegrees,DateUTC
12:53 AM,41.0,36.0,82,29.86,10.0,SSW,5.8,-,N/A,,Clear,200,2013-10-01 06:53:00
1:53 AM,41.0,34.0,76,29.89,10.0,SSW,4.6,-,N/A,,Clear,200,2013-10-01 07:53:00
2:53 AM,41.0,33.1,73,29.93,10.0,WSW,5.8,-,N/A,,Clear,240,2013-10-01 08:53:00
3:53 AM,37.0,30.9,79,29.96,10.0,SSW,5.8,-,N/A,,Clear,200,2013-10-01 09:53:00
4:53 AM,39.0,30.0,70,29.97,10.0,SSW,5.8,-,N/A,,Clear,210,2013-10-01 10:53:00
5:53 AM,39.0,33.1,79,29.99,10.0,SSW,5.8,-,N/A,,Clear,200,2013-10-01 11:53:00
6:53 AM,37.9,33.1,83,30.00,10.0,Calm,Calm,-,N/A,,Clear,0,2013-10-01 12:53:00
7:53 AM,39.9,35.1,83,30.00,10.0,Variable,3.5,-,N/A,,Clear,0,2013-10-01 13:53:00
8:53 AM,50.0,39.9,68,29.98,10.0,East,10.4,-,N/A,,Clear,100,2013-10-01 14:53:00
9:53 AM,55.0,37.9,53,29.96,10.0,ESE,15.0,20.7,N/A,,Clear,120,2013-10-01 15:53:00
10:53 AM,57.9,32.0,37,29.95,10.0,SE,21.9,28.8,N/A,,Clear,140,2013-10-01 16:53:00
11:53 AM,60.1,34.0,38,29.92,10.0,SE,16.1,24.2,N/A,,Clear,140,2013-10-01 17:53:00
12:53 PM,62.1,37.0,39,29.89,10.0,SE,12.7,19.6,N/A,,Clear,130,2013-10-01 18:53:00
1:53 PM,64.0,36.0,35,29.86,10.0,East,5.8,-,N/A,,Clear,80,2013-10-01 19:53:00
2:53 PM,68.0,39.0,35,29.83,10.0,NE,5.8,-,N/A,,Clear,40,2013-10-01 20:53:00
3:53 PM,66.9,39.0,36,29.84,10.0,NNW,6.9,-,N/A,,Clear,340,2013-10-01 21:53:00
4:53 PM,66.9,39.0,36,29.83,10.0,NNW,4.6,-,N/A,,Clear,340,2013-10-01 22:53:00
5:53 PM,62.1,43.0,50,29.84,10.0,NW,4.6,-,N/A,,Clear,310,2013-10-01 23:53:00
6:53 PM,52.0,39.9,63,29.88,10.0,WNW,6.9,-,N/A,,Clear,290,2013-10-02 00:53:00
7:53 PM,50.0,39.0,66,29.90,10.0,Calm,Calm,-,N/A,,Clear,0,2013-10-02 01:53:00
8:53 PM,51.1,39.0,63,29.89,10.0,Calm,Calm,-,N/A,,Clear,0,2013-10-02 02:53:00
9:53 PM,46.9,39.9,77,29.90,10.0,Calm,Calm,-,N/A,,Clear,0,2013-10-02 03:53:00
10:53 PM,51.1,37.0,59,29.89,10.0,WNW,11.5,-,N/A,,Partly Cloudy,290,2013-10-02 04:53:00
11:53 PM,50.0,36.0,59,29.89,10.0,WNW,10.4,-,N/A,,Partly Cloudy,290,2013-10-02 05:53:00